Dati Storici

Data ora Umidita' aria (%) Temperatura aria (°C) Rad globale (W/m²) Gonioanemometro (°) Tacoanemometro (m/s) Pioggia (mm)
26-06-2020 14:10 56.3 % 26.781 134.168 0.941 0 0
26-06-2020 14:00 56.1 % 27.067 67.211 1.01 0 0
26-06-2020 13:50 56.5 % 26.685 168.359 1.648 0 0
26-06-2020 13:40 57.4 % 26.563 113.62 1.46 0 0
26-06-2020 13:30 57.5 % 27.633 111.176 2.585 0 0
26-06-2020 13:20 57 % 26.932 89.107 2.237 0 0
26-06-2020 13:10 57 % 27.215 159.686 0.077 0 0
26-06-2020 13:00 56.9 % 26.868 159.572 2.114 0 0
26-06-2020 12:50 57 % 27.24 54.817 1.219 0 0
26-06-2020 12:40 56.7 % 26.323 94.865 1.473 0 0
26-06-2020 12:30 56.6 % 26.532 101.605 2.333 0 0
26-06-2020 12:20 55.7 % 27.48 82.768 0.91 0 0
26-06-2020 12:10 55.7 % 26.845 -58.64 0.482 0 0
26-06-2020 12:00 54.5 % 26.508 -57.611 2.266 0 0
26-06-2020 11:50 55.2 % 26.538 -60.289 2.566 0 0
26-06-2020 11:40 55.7 % 27.094 -70.947 1.751 0 0
26-06-2020 11:30 57.1 % 27.09 -78.361 0.406 0 0
26-06-2020 11:20 57.8 % 26.26 -72.408 1.671 0 0
26-06-2020 11:10 58.9 % 26.058 -74.613 1.151 0 0
26-06-2020 11:00 58.9 % 25.863 -56.828 2.582 0 0

I dati sono presentati in modo automatico a scopo informativo. In seguito a verifica i dati possono subire modifiche o essere invalidati e non riportati negli archivi definitivi.